�������l�o���
Date,Time,MP-1(��Sv/h),MP-2(��Sv/h),MP-3(��Sv/h),MP-4(��Sv/h),MP-5(��Sv/h),MP-6(��Sv/h),MP-7(��Sv/h),MP-8(��Sv/h),����,����(m/s),���J
2023/01/13,00:00,0.575,0.829,0.517,1.064,0.734,0.325,0.587,0.557,���쐼,3.8,��
2023/01/13,00:10,0.574,0.829,0.516,1.063,0.736,0.325,0.588,0.558,���쐼,6.0,��
2023/01/13,00:20,0.574,0.831,0.516,1.065,0.733,0.326,0.587,0.559,��,6.1,��
2023/01/13,00:30,0.575,0.830,0.517,1.064,0.735,0.326,0.585,0.559,���쐼,4.6,��
2023/01/13,00:40,0.571,0.829,0.517,1.062,0.731,0.326,0.587,0.558,�쐼,2.4,��
2023/01/13,00:50,0.574,0.828,0.516,1.063,0.733,0.326,0.588,0.556,�쐼,1.9,��
2023/01/13,01:00,0.573,0.830,0.518,1.064,0.733,0.325,0.588,0.559,���쐼,2.7,��
2023/01/13,01:10,0.574,0.828,0.519,1.063,0.734,0.324,0.587,0.556,���쐼,3.4,��
2023/01/13,01:20,0.573,0.829,0.518,1.064,0.734,0.324,0.588,0.558,���쐼,3.1,��
2023/01/13,01:30,0.573,0.830,0.517,1.064,0.734,0.325,0.587,0.558,���쐼,3.9,��
2023/01/13,01:40,0.574,0.830,0.518,1.063,0.732,0.323,0.586,0.558,�쐼,2.8,��
2023/01/13,01:50,0.574,0.829,0.516,1.063,0.733,0.325,0.586,0.559,���쐼,3.9,��
2023/01/13,02:00,0.574,0.829,0.518,1.064,0.733,0.326,0.588,0.558,���쐼,2.7,��
2023/01/13,02:10,0.572,0.829,0.517,1.062,0.734,0.326,0.588,0.558,�쐼,2.1,��
2023/01/13,02:20,0.573,0.829,0.517,1.064,0.733,0.326,0.587,0.558,��,3.8,��
2023/01/13,02:30,0.572,0.831,0.516,1.064,0.733,0.326,0.587,0.557,��,2.8,��
2023/01/13,02:40,0.574,0.829,0.518,1.064,0.732,0.325,0.586,0.558,�쐼,2.0,��
2023/01/13,02:50,0.573,0.828,0.515,1.063,0.732,0.326,0.588,0.558,��,2.2,��
2023/01/13,03:00,0.574,0.831,0.517,1.063,0.731,0.326,0.587,0.558,��,1.8,��
2023/01/13,03:10,0.572,0.831,0.518,1.062,0.734,0.326,0.586,0.557,��,3.6,��
2023/01/13,03:20,0.575,0.828,0.516,1.063,0.733,0.326,0.587,0.557,���k��,4.1,��
2023/01/13,03:30,0.575,0.829,0.517,1.063,0.733,0.326,0.587,0.558,���쐼,1.7,��
2023/01/13,03:40,0.573,0.830,0.515,1.060,0.732,0.326,0.586,0.558,�쐼,2.7,��
2023/01/13,03:50,0.574,0.829,0.517,1.063,0.733,0.326,0.588,0.557,�쐼,3.5,��
2023/01/13,04:00,0.572,0.830,0.518,1.063,0.734,0.325,0.587,0.559,�쐼,3.1,��
2023/01/13,04:10,0.572,0.829,0.516,1.063,0.733,0.325,0.587,0.557,��쐼,2.2,��
2023/01/13,04:20,0.573,0.830,0.519,1.062,0.734,0.324,0.588,0.557,�쐼,1.7,��
2023/01/13,04:30,0.573,0.828,0.517,1.065,0.732,0.326,0.588,0.557,���쐼,3.0,��
2023/01/13,04:40,0.575,0.829,0.516,1.064,0.732,0.327,0.587,0.558,���쐼,2.9,��
2023/01/13,04:50,0.572,0.829,0.518,1.060,0.732,0.325,0.585,0.558,���쐼,2.9,��
2023/01/13,05:00,0.573,0.828,0.516,1.063,0.733,0.326,0.586,0.558,���쐼,2.9,��
2023/01/13,05:10,0.573,0.828,0.515,1.064,0.733,0.325,0.587,0.559,���쐼,4.2,��
2023/01/13,05:20,0.573,0.828,0.517,1.063,0.732,0.326,0.587,0.558,�쐼,3.4,��
2023/01/13,05:30,0.571,0.827,0.518,1.063,0.731,0.325,0.588,0.557,�쐼,2.6,��
2023/01/13,05:40,0.573,0.827,0.516,1.063,0.732,0.326,0.588,0.559,���쐼,2.7,��
2023/01/13,05:50,0.574,0.828,0.518,1.061,0.734,0.326,0.588,0.558,���쐼,3.2,��
2023/01/13,06:00,0.572,0.828,0.517,1.063,0.734,0.325,0.586,0.557,�쐼,3.0,��
2023/01/13,06:10,0.573,0.830,0.517,1.065,0.733,0.325,0.588,0.558,�쐼,2.8,��
2023/01/13,06:20,0.572,0.827,0.516,1.064,0.733,0.325,0.588,0.558,��쐼,1.6,��
2023/01/13,06:30,0.572,0.827,0.517,1.063,0.732,0.326,0.586,0.556,���쐼,1.2,��
2023/01/13,06:40,0.573,0.828,0.516,1.063,0.732,0.325,0.588,0.557,���쐼,1.6,��
2023/01/13,06:50,0.572,0.827,0.517,1.060,0.732,0.325,0.587,0.557,���쐼,3.4,��
2023/01/13,07:00,0.572,0.829,0.516,1.064,0.731,0.325,0.587,0.557,���쐼,3.6,��
2023/01/13,07:10,0.573,0.828,0.515,1.061,0.731,0.325,0.586,0.560,�쐼,3.6,��
2023/01/13,07:20,0.571,0.827,0.516,1.062,0.732,0.324,0.586,0.557,��쐼,4.5,��
2023/01/13,07:30,0.573,0.828,0.516,1.061,0.731,0.325,0.588,0.558,��쐼,4.5,��
2023/01/13,07:40,0.573,0.825,0.516,1.062,0.731,0.325,0.586,0.558,�쐼,4.4,��
2023/01/13,07:50,0.574,0.827,0.518,1.064,0.733,0.325,0.589,0.559,�쐼,5.5,��
2023/01/13,08:00,0.573,0.828,0.515,1.063,0.733,0.324,0.589,0.557,�쐼,6.6,��
2023/01/13,08:10,0.574,0.828,0.516,1.064,0.732,0.326,0.589,0.557,�쐼,6.7,��
2023/01/13,08:20,0.572,0.828,0.517,1.063,0.731,0.324,0.589,0.559,�쐼,6.3,��
2023/01/13,08:30,0.574,0.828,0.518,1.066,0.732,0.326,0.590,0.559,�쐼,6.0,��
2023/01/13,08:40,0.574,0.828,0.518,1.064,0.731,0.326,0.589,0.559,��쐼,5.5,��
2023/01/13,08:50,0.575,0.827,0.518,1.064,0.732,0.325,0.588,0.557,��쐼,5.2,��
2023/01/13,09:00,0.575,0.828,0.517,1.065,0.732,0.326,0.588,0.558,�쐼,5.2,��
2023/01/13,09:10,0.576,0.829,0.519,1.064,0.732,0.326,0.590,0.560,��쐼,5.0,��
2023/01/13,09:20,0.576,0.830,0.517,1.067,0.732,0.325,0.590,0.558,�쐼,6.0,��
2023/01/13,09:30,0.576,0.827,0.519,1.063,0.734,0.328,0.590,0.558,�쐼,8.0,��
2023/01/13,09:40,0.578,0.829,0.519,1.063,0.734,0.324,0.589,0.559,�쐼,8.6,��
2023/01/13,09:50,0.577,0.828,0.518,1.065,0.732,0.326,0.588,0.559,�쐼,8.0,��
2023/01/13,10:00,0.575,0.828,0.520,1.064,0.734,0.326,0.588,0.559,�쐼,7.1,��
2023/01/13,10:10,0.577,0.829,0.520,1.066,0.735,0.327,0.588,0.558,�쐼,6.0,��
2023/01/13,10:20,0.577,0.827,0.520,1.065,0.734,0.326,0.587,0.559,�쐼,5.8,��
2023/01/13,10:30,0.577,0.826,0.518,1.066,0.735,0.327,0.589,0.560,�쐼,7.2,��
2023/01/13,10:40,0.576,0.827,0.520,1.066,0.735,0.326,0.589,0.559,�쐼,8.6,��
2023/01/13,10:50,0.578,0.825,0.521,1.065,0.732,0.327,0.588,0.559,�쐼,7.5,��
2023/01/13,11:00,0.576,0.827,0.519,1.066,0.736,0.325,0.589,0.559,�쐼,6.6,��
2023/01/13,11:10,0.576,0.827,0.519,1.064,0.735,0.326,0.589,0.559,��쐼,5.2,��
2023/01/13,11:20,0.575,0.828,0.519,1.067,0.736,0.326,0.588,0.559,��쐼,5.0,��
2023/01/13,11:30,0.576,0.828,0.519,1.067,0.736,0.326,0.588,0.561,��,4.4,��
2023/01/13,11:40,0.575,0.828,0.520,1.065,0.737,0.325,0.589,0.560,��쓌,6.1,��
2023/01/13,11:50,0.576,0.829,0.520,1.063,0.736,0.324,0.590,0.559,��쓌,6.0,��
2023/01/13,12:00,0.577,0.830,0.521,1.067,0.737,0.326,0.588,0.561,��쓌,6.7,��
2023/01/13,12:10,0.578,0.830,0.519,1.066,0.736,0.326,0.589,0.561,��쓌,9.9,��
2023/01/13,12:20,0.576,0.830,0.520,1.067,0.734,0.326,0.589,0.559,��쓌,10.2,��
2023/01/13,12:30,0.576,0.830,0.518,1.067,0.735,0.327,0.589,0.561,��쓌,11.1,��
2023/01/13,12:40,0.576,0.832,0.520,1.065,0.734,0.327,0.589,0.561,��쓌,10.1,��
2023/01/13,12:50,0.576,0.829,0.519,1.067,0.733,0.327,0.591,0.560,��쓌,9.1,��
2023/01/13,13:00,0.577,0.829,0.519,1.067,0.733,0.327,0.590,0.559,��쓌,9.7,��
2023/01/13,13:10,0.576,0.828,0.519,1.067,0.733,0.327,0.589,0.558,��쓌,10.5,��
2023/01/13,13:20,0.575,0.829,0.518,1.066,0.734,0.329,0.587,0.559,��쓌,9.9,��
2023/01/13,13:30,0.576,0.830,0.518,1.065,0.733,0.328,0.589,0.558,��쓌,10.5,��
2023/01/13,13:40,0.576,0.827,0.518,1.067,0.734,0.328,0.589,0.558,��쓌,8.5,��
2023/01/13,13:50,0.578,0.827,0.518,1.066,0.734,0.327,0.589,0.558,��쓌,8.2,��
2023/01/13,14:00,0.577,0.829,0.519,1.066,0.734,0.327,0.590,0.557,��쓌,7.4,��
2023/01/13,14:10,0.575,0.827,0.518,1.067,0.735,0.327,0.589,0.557,��쓌,9.1,��
2023/01/13,14:20,0.577,0.830,0.519,1.066,0.732,0.326,0.590,0.559,��쓌,9.1,��
2023/01/13,14:30,0.575,0.829,0.520,1.067,0.735,0.327,0.589,0.558,��,7.5,��
2023/01/13,14:40,0.577,0.827,0.519,1.064,0.736,0.327,0.589,0.557,��쓌,8.0,��
2023/01/13,14:50,0.576,0.826,0.518,1.065,0.735,0.326,0.589,0.558,��,9.1,��
2023/01/13,15:00,0.575,0.829,0.519,1.068,0.735,0.325,0.590,0.558,��,8.6,��
2023/01/13,15:10,0.578,0.829,0.519,1.068,0.734,0.327,0.588,0.557,��,7.1,��
2023/01/13,15:20,0.576,0.829,0.519,1.068,0.734,0.328,0.589,0.559,��,6.6,��
2023/01/13,15:30,0.578,0.829,0.519,1.066,0.733,0.326,0.590,0.559,��쓌,6.9,��
2023/01/13,15:40,0.577,0.831,0.519,1.065,0.737,0.328,0.589,0.560,��,6.3,��
2023/01/13,15:50,0.577,0.832,0.522,1.065,0.734,0.327,0.589,0.561,��,6.4,��
2023/01/13,16:00,0.577,0.830,0.522,1.064,0.735,0.328,0.590,0.561,��,6.9,��
2023/01/13,16:10,0.580,0.833,0.523,1.065,0.736,0.326,0.589,0.560,��,6.6,��
2023/01/13,16:20,0.580,0.832,0.521,1.069,0.735,0.327,0.589,0.562,��,7.4,��
2023/01/13,16:30,0.580,0.832,0.521,1.066,0.734,0.328,0.589,0.560,��,6.6,��
2023/01/13,16:40,0.580,0.833,0.522,1.067,0.737,0.328,0.589,0.561,��쐼,6.0,��
2023/01/13,16:50,0.580,0.833,0.521,1.066,0.737,0.327,0.589,0.561,��,5.8,��
2023/01/13,17:00,0.579,0.833,0.521,1.066,0.737,0.328,0.590,0.561,��,6.7,��
2023/01/13,17:10,0.578,0.834,0.520,1.067,0.737,0.328,0.588,0.559,��,6.6,��
2023/01/13,17:20,0.579,0.834,0.519,1.064,0.738,0.329,0.590,0.561,��,6.9,��
2023/01/13,17:30,0.578,0.833,0.520,1.068,0.737,0.329,0.589,0.561,��,6.6,��
2023/01/13,17:40,0.578,0.834,0.520,1.067,0.734,0.328,0.591,0.561,��,5.8,��
2023/01/13,17:50,0.580,0.832,0.521,1.067,0.735,0.327,0.591,0.559,��,5.8,��
2023/01/13,18:00,0.579,0.834,0.521,1.067,0.736,0.328,0.591,0.560,��,6.0,��
2023/01/13,18:10,0.580,0.832,0.521,1.066,0.739,0.328,0.591,0.560,��,6.6,��
2023/01/13,18:20,0.578,0.833,0.519,1.067,0.736,0.326,0.591,0.561,��,6.6,��
2023/01/13,18:30,0.579,0.831,0.519,1.065,0.737,0.328,0.591,0.560,��,5.6,��
2023/01/13,18:40,0.577,0.832,0.521,1.065,0.737,0.327,0.592,0.559,��,4.4,��
2023/01/13,18:50,0.579,0.833,0.521,1.068,0.739,0.327,0.592,0.559,��쐼,4.7,��
2023/01/13,19:00,0.579,0.832,0.520,1.068,0.739,0.328,0.590,0.558,��,5.3,��
2023/01/13,19:10,0.578,0.833,0.520,1.067,0.737,0.328,0.591,0.560,��,4.9,��
2023/01/13,19:20,0.578,0.833,0.519,1.067,0.736,0.327,0.591,0.560,��,5.2,��
2023/01/13,19:30,0.579,0.834,0.520,1.067,0.739,0.327,0.590,0.559,��,5.0,��
2023/01/13,19:40,0.578,0.831,0.520,1.066,0.736,0.328,0.591,0.561,��,4.5,��
2023/01/13,19:50,0.579,0.834,0.520,1.066,0.737,0.328,0.591,0.560,��,4.2,��
2023/01/13,20:00,0.580,0.834,0.522,1.065,0.738,0.327,0.589,0.560,��,4.9,��
2023/01/13,20:10,0.578,0.833,0.520,1.066,0.737,0.327,0.590,0.561,��쐼,4.9,��
2023/01/13,20:20,0.580,0.832,0.522,1.067,0.736,0.328,0.592,0.560,��,3.4,��
2023/01/13,20:30,0.580,0.833,0.520,1.069,0.736,0.327,0.591,0.560,��쐼,3.3,��
2023/01/13,20:40,0.580,0.832,0.520,1.067,0.736,0.329,0.590,0.559,��쐼,2.7,��
2023/01/13,20:50,0.579,0.832,0.522,1.065,0.738,0.328,0.590,0.560,��,2.7,��
2023/01/13,21:00,0.580,0.831,0.520,1.066,0.739,0.328,0.589,0.560,��,1.8,��
2023/01/13,21:10,0.579,0.833,0.521,1.067,0.737,0.328,0.590,0.558,��쓌,2.5,��
2023/01/13,21:20,0.580,0.834,0.520,1.065,0.737,0.328,0.590,0.561,��,2.6,��
2023/01/13,21:30,0.578,0.835,0.520,1.065,0.737,0.328,0.591,0.560,��,1.7,��
2023/01/13,21:40,0.578,0.832,0.522,1.066,0.737,0.327,0.590,0.560,��쓌,1.8,��
2023/01/13,21:50,0.580,0.831,0.521,1.068,0.739,0.327,0.590,0.561,��쓌,2.4,��
2023/01/13,22:00,0.579,0.833,0.522,1.066,0.739,0.328,0.592,0.560,��쐼,1.8,��
2023/01/13,22:10,0.578,0.833,0.520,1.066,0.739,0.328,0.590,0.560,��쐼,1.4,��
2023/01/13,22:20,0.578,0.834,0.521,1.068,0.737,0.327,0.591,0.560,��쐼,1.5,��
2023/01/13,22:30,0.579,0.835,0.522,1.067,0.737,0.328,0.589,0.560,�쐼,3.3,��
2023/01/13,22:40,0.578,0.831,0.521,1.065,0.739,0.328,0.591,0.561,-,CALM,��
2023/01/13,22:50,0.577,0.834,0.521,1.066,0.738,0.328,0.590,0.560,��,0.5,��
2023/01/13,23:00,0.581,0.833,0.522,1.066,0.738,0.327,0.590,0.560,���k��,0.6,�L
2023/01/13,23:10,0.579,0.834,0.520,1.068,0.735,0.329,0.589,0.561,�k�k��,3.3,�L
2023/01/13,23:20,0.582,0.834,0.523,1.067,0.737,0.329,0.590,0.560,�k�k��,1.8,��
2023/01/13,23:30,0.579,0.833,0.520,1.067,0.736,0.329,0.590,0.559,�쐼,2.9,�L
2023/01/13,23:40,0.579,0.834,0.522,1.065,0.737,0.327,0.590,0.559,��쐼,1.7,�L
2023/01/13,23:50,0.579,0.832,0.522,1.067,0.738,0.328,0.591,0.560,�쓌,1.6,�L
